Regional Weather Roundup
Issued by NWS

Home | Current Version | Previous Version | Graphics & Text | Print | Product List | Glossary On
Versions: 1 2 3 4 5 6 7 8 9 10 11 12 13 14 15 16 17 18 19 20 21 22 23 24 25 26 27 28 29 30 31 32 33 34 35 36 37 38 39 40 41 42 43 44 45 46 47 48 49 50
000
ASUS43 KIND 271859
RWRIN

WEATHER ROUNDUP FOR INDIANA
NATIONAL WEATHER SERVICE INDIANAPOLIS IN
200 PM EST TUE JAN 27 2015

NOTE: "FAIR" INDICATES FEW OR NO CLOUDS BELOW 12,000 FEET WITH NO
SIGNIFICANT WEATHER AND/OR OBSTRUCTIONS TO VISIBILITY.

* - STATION DOES NOT REPORT WEATHER SUCH AS PRECIPITATION OR FOG.

+ - STATION NOT QUALITY CONTROLLED BY THE NATIONAL WEATHER SERVICE.
    USE DATA WITH CAUTION...ESPECIALLY DEWPOINT AND RELATIVE
    HUMIDITY OBSERVATIONS.

INZ001>003-010>013-019-020-272000-
NORTHWEST INDIANA

CITY           SKY/WX    TMP DP  RH WIND       PRES   REMARKS
GARY /AIRPORT/ MOSUNNY   32  12  43 NE9       30.18R WCI  24
VALPARAISO     NOT AVBL

$$

LMZ046-743>745-272000-
SOUTHERN LAKE MICHIGAN

STATION/POSITION TIME  TEMP WIND        PRES
                       AIR  DIR/SP/G
                 (UTC) (F)  (DEG/KT/KT) (MB)
MICHIGAN CITY    1800   27  340/ 10/ 12   N/A

$$

INZ004-005-014>016-021>024-272000-
NORTH CENTRAL INDIANA

CITY           SKY/WX    TMP DP  RH WIND       PRES   REMARKS
ELKHART        SUNNY     28   7  40 NE5       30.15S WCI  23
GOSHEN         SUNNY     25  13  60 NE7       30.13S WCI  17
SOUTH BEND     SUNNY     29   8  41 NW5       30.14F WCI  24

$$

INZ006>009-017-018-025>027-272000-
NORTHEAST INDIANA

CITY           SKY/WX    TMP DP  RH WIND       PRES   REMARKS
ANGOLA *+      SUNNY     25  10  54 NW5       30.11R WCI  19
FORT WAYNE     MOSUNNY   24  13  62 CALM      30.13R

$$

INZ028-029-035-036-043>045-051>053-272000-
WEST CENTRAL INDIANA

CITY           SKY/WX    TMP DP  RH WIND       PRES   REMARKS
GREENCASTLE +  CLOUDY    30  23  74 NE7       30.12R WCI  23
LAFAYETTE      CLOUDY    27  14  58 NE5       30.15R WCI  22
TERRE HAUTE    CLOUDY    31  26  82 N6        30.13R WCI  25

$$

INZ030>032-037>040-046>048-054>057-064-065-272000-
CENTRAL INDIANA

CITY           SKY/WX    TMP DP  RH WIND       PRES   REMARKS
ANDERSON       MOSUNNY   25  10  54 N8        30.13R WCI  16
COLUMBUS       CLOUDY    28  12  50 N7        30.12S WCI  21
INDIANAPOLIS   CLOUDY    27  15  61 VRB5      30.11S WCI  22
-EAGLE CREEK   CLOUDY    28  13  53 N5        30.11R WCI  23
KOKOMO *+      SUNNY     28  16  59 NE5       30.13S WCI  23
MT COMFORT *+  SUNNY     28   1  31 NE6       30.11F WCI  22
SHELBYVILLE    CLOUDY    30  14  51 NE5       30.10F WCI  25

$$

INZ033-034-041-042-049-050-058-059-272000-
EAST CENTRAL INDIANA

CITY           SKY/WX    TMP DP  RH WIND       PRES   REMARKS
MUNCIE         SUNNY     25  13  60 N3        30.11R

$$

INZ060-061-067>069-081>083-085>088-272000-
SOUTHWEST INDIANA

CITY           SKY/WX    TMP DP  RH WIND       PRES   REMARKS
EVANSVILLE     CLOUDY    36  30  79 N7        30.13S
HUNTINGBURG *+ CLOUDY    32  27  80 CALM      30.12R

$$

INZ062-063-066-070>080-084-089>092-272000-
SOUTH CENTRAL AND SOUTHEAST INDIANA

CITY           SKY/WX    TMP DP  RH WIND       PRES   REMARKS
BLOOMINGTON    CLOUDY    31  25  78 N6        30.10R WCI  25

$$



USA.gov is the U.S. government's official web portal to all federal, state and local government web resources and services.